Time,TemperatureF,DewpointF,PressureIn,WindDirection,WindDirectionDegrees,WindSpeedMPH,WindSpeedGustMPH,Humidity,HourlyPrecipIn,Conditions,Clouds,dailyrainin,SoftwareType,DateUTC
2013-10-06 00:04:00,42.3,39.9,29.73,NW,326,0.0,0.0,91,0.00,,,0.00,VWS V14.01,2013-10-06 05:04:00,
2013-10-06 00:09:00,42.2,39.8,29.73,NW,326,0.0,0.0,91,0.00,,,0.00,VWS V14.01,2013-10-06 05:09:00,
2013-10-06 00:14:00,42.1,39.7,29.73,NW,326,0.0,0.0,91,0.00,,,0.00,VWS V14.01,2013-10-06 05:14:00,
2013-10-06 00:19:00,42.0,39.6,29.73,NW,326,0.0,0.0,91,0.00,,,0.00,VWS V14.01,2013-10-06 05:19:00,
2013-10-06 00:25:00,41.9,39.5,29.73,NW,326,0.0,0.0,91,0.00,,,0.00,VWS V14.01,2013-10-06 05:25:00,
2013-10-06 00:30:00,41.8,39.4,29.73,NW,326,0.0,0.0,91,0.00,,,0.00,VWS V14.01,2013-10-06 05:30:00,
2013-10-06 00:35:00,41.7,39.3,29.72,NW,325,0.0,0.0,91,0.00,,,0.00,VWS V14.01,2013-10-06 05:35:00,
2013-10-06 00:40:00,41.7,39.3,29.72,NW,326,0.0,0.0,91,0.00,,,0.00,VWS V14.01,2013-10-06 05:40:00,
2013-10-06 00:45:00,41.6,39.2,29.73,NW,326,0.0,0.0,91,0.00,,,0.00,VWS V14.01,2013-10-06 05:45:00,
2013-10-06 00:50:00,41.8,39.1,29.73,NW,325,0.0,0.0,90,0.00,,,0.00,VWS V14.01,2013-10-06 05:50:00,
2013-10-06 00:55:00,41.8,39.1,29.73,NW,326,0.0,0.0,90,0.00,,,0.00,VWS V14.01,2013-10-06 05:55:00,
2013-10-06 01:00:00,41.8,39.1,29.73,NW,326,0.0,0.0,90,0.00,,,0.00,VWS V14.01,2013-10-06 06:00:00,
2013-10-06 01:05:00,41.8,39.1,29.73,NW,325,0.0,0.0,90,0.00,,,0.00,VWS V14.01,2013-10-06 06:05:00,
2013-10-06 01:10:00,41.9,38.9,29.73,NW,325,0.0,0.0,89,0.00,,,0.00,VWS V14.01,2013-10-06 06:10:00,
2013-10-06 01:15:00,42.0,39.0,29.72,NW,325,0.0,0.0,89,0.00,,,0.00,VWS V14.01,2013-10-06 06:15:00,
2013-10-06 01:20:00,42.2,39.2,29.72,NW,326,0.0,0.0,89,0.00,,,0.00,VWS V14.01,2013-10-06 06:20:00,
2013-10-06 01:25:00,42.3,39.3,29.72,NW,326,0.0,0.0,89,0.00,,,0.00,VWS V14.01,2013-10-06 06:25:00,
2013-10-06 01:30:00,42.4,39.1,29.72,NW,326,0.0,1.0,88,0.00,,,0.00,VWS V14.01,2013-10-06 06:30:00,
2013-10-06 01:36:00,42.6,39.3,29.72,NW,326,0.0,0.0,88,0.00,,,0.00,VWS V14.01,2013-10-06 06:36:00,
2013-10-06 01:41:00,42.6,39.3,29.73,NW,326,0.0,0.0,88,0.00,,,0.00,VWS V14.01,2013-10-06 06:41:00,
2013-10-06 01:46:00,42.7,39.4,29.72,NW,326,0.0,0.0,88,0.00,,,0.00,VWS V14.01,2013-10-06 06:46:00,
2013-10-06 01:51:00,42.7,39.7,29.72,NW,326,0.0,0.0,89,0.00,,,0.00,VWS V14.01,2013-10-06 06:51:00,
2013-10-06 01:56:00,42.8,39.8,29.71,NW,326,0.0,0.0,89,0.00,,,0.00,VWS V14.01,2013-10-06 06:56:00,
2013-10-06 02:01:00,42.8,39.8,29.71,NW,326,0.0,0.0,89,0.00,,,0.00,VWS V14.01,2013-10-06 07:01:00,
2013-10-06 02:06:00,42.9,39.6,29.71,NW,326,0.0,0.0,88,0.00,,,0.00,VWS V14.01,2013-10-06 07:06:00,
2013-10-06 02:11:00,43.0,40.0,29.71,NW,325,0.0,0.0,89,0.00,,,0.00,VWS V14.01,2013-10-06 07:11:00,
2013-10-06 02:16:00,43.0,40.0,29.71,NW,325,0.0,0.0,89,0.00,,,0.00,VWS V14.01,2013-10-06 07:16:00,
2013-10-06 02:21:00,43.0,40.0,29.71,NW,326,0.0,0.0,89,0.00,,,0.00,VWS V14.01,2013-10-06 07:21:00,
2013-10-06 02:26:00,42.9,39.9,29.71,NW,326,0.0,0.0,89,0.00,,,0.00,VWS V14.01,2013-10-06 07:26:00,
2013-10-06 02:31:00,42.8,40.1,29.71,NW,326,0.0,0.0,90,0.00,,,0.00,VWS V14.01,2013-10-06 07:31:00,
2013-10-06 02:36:00,42.7,40.0,29.71,NW,325,0.0,0.0,90,0.00,,,0.00,VWS V14.01,2013-10-06 07:36:00,
2013-10-06 02:41:00,42.6,39.9,29.71,NW,326,0.0,0.0,90,0.00,,,0.00,VWS V14.01,2013-10-06 07:41:00,
2013-10-06 02:46:00,42.6,39.9,29.71,NW,325,0.0,0.0,90,0.00,,,0.00,VWS V14.01,2013-10-06 07:46:00,
2013-10-06 02:51:00,42.5,39.8,29.70,NW,326,0.0,0.0,90,0.00,,,0.00,VWS V14.01,2013-10-06 07:51:00,
2013-10-06 02:56:00,42.4,39.7,29.70,NW,326,0.0,0.0,90,0.00,,,0.00,VWS V14.01,2013-10-06 07:56:00,
2013-10-06 03:02:00,42.2,39.5,29.70,NW,326,0.0,0.0,90,0.00,,,0.00,VWS V14.01,2013-10-06 08:02:00,
2013-10-06 03:07:00,42.2,39.5,29.70,NW,326,0.0,0.0,90,0.00,,,0.00,VWS V14.01,2013-10-06 08:07:00,
2013-10-06 03:12:00,42.1,39.4,29.70,NW,326,0.0,0.0,90,0.00,,,0.00,VWS V14.01,2013-10-06 08:12:00,
2013-10-06 03:17:00,42.0,39.3,29.70,NW,305,0.0,1.0,90,0.00,,,0.00,VWS V14.01,2013-10-06 08:17:00,
2013-10-06 03:39:00,41.9,39.2,29.70,WNW,302,0.0,0.0,90,0.00,,,0.00,VWS V14.01,2013-10-06 08:39:00,
2013-10-06 03:44:00,41.9,38.9,29.69,WNW,302,0.0,0.0,89,0.00,,,0.00,VWS V14.01,2013-10-06 08:44:00,
2013-10-06 03:49:00,41.9,38.9,29.68,WNW,302,0.0,0.0,89,0.00,,,0.00,VWS V14.01,2013-10-06 08:49:00,
2013-10-06 03:54:00,41.8,39.1,29.69,WNW,302,0.0,0.0,90,0.00,,,0.00,VWS V14.01,2013-10-06 08:54:00,
2013-10-06 03:59:00,41.7,39.0,29.69,WNW,302,0.0,0.0,90,0.00,,,0.00,VWS V14.01,2013-10-06 08:59:00,
2013-10-06 04:04:00,41.6,38.9,29.69,WNW,302,0.0,0.0,90,0.00,,,0.00,VWS V14.01,2013-10-06 09:04:00,
2013-10-06 04:09:00,41.5,38.8,29.69,WNW,302,0.0,1.0,90,0.00,,,0.00,VWS V14.01,2013-10-06 09:09:00,
2013-10-06 04:14:00,41.3,38.9,29.69,WNW,302,0.0,1.0,91,0.00,,,0.00,VWS V14.01,2013-10-06 09:14:00,
2013-10-06 04:19:00,41.2,38.5,29.69,WNW,301,0.0,1.0,90,0.00,,,0.00,VWS V14.01,2013-10-06 09:19:00,
2013-10-06 04:24:00,41.1,38.4,29.69,WNW,302,0.0,1.0,90,0.00,,,0.00,VWS V14.01,2013-10-06 09:24:00,
2013-10-06 04:29:00,41.0,38.3,29.69,WNW,302,0.0,1.0,90,0.00,,,0.00,VWS V14.01,2013-10-06 09:29:00,
2013-10-06 04:34:00,40.9,38.2,29.69,WNW,302,0.0,0.0,90,0.00,,,0.00,VWS V14.01,2013-10-06 09:34:00,
2013-10-06 04:39:00,40.8,38.1,29.69,WNW,302,0.0,0.0,90,0.00,,,0.00,VWS V14.01,2013-10-06 09:39:00,
2013-10-06 04:44:00,40.7,38.3,29.69,WNW,301,0.0,1.0,91,0.00,,,0.00,VWS V14.01,2013-10-06 09:44:00,
2013-10-06 04:49:00,40.6,38.2,29.69,WNW,301,0.0,1.0,91,0.00,,,0.00,VWS V14.01,2013-10-06 09:49:00,
2013-10-06 04:54:00,40.5,38.1,29.69,WNW,301,0.0,1.0,91,0.00,,,0.00,VWS V14.01,2013-10-06 09:54:00,
2013-10-06 04:59:00,40.3,37.9,29.69,WNW,302,0.0,1.0,91,0.00,,,0.00,VWS V14.01,2013-10-06 09:59:00,
2013-10-06 05:04:00,40.2,37.8,29.69,WNW,301,0.0,1.0,91,0.00,,,0.00,VWS V14.01,2013-10-06 10:04:00,
2013-10-06 05:09:00,40.3,37.6,29.69,WNW,302,0.0,1.0,90,0.00,,,0.00,VWS V14.01,2013-10-06 10:09:00,
2013-10-06 05:14:00,40.6,37.6,29.69,WNW,301,0.0,1.0,89,0.00,,,0.00,VWS V14.01,2013-10-06 10:14:00,
2013-10-06 05:19:00,40.7,37.7,29.69,WNW,301,0.0,1.0,89,0.00,,,0.00,VWS V14.01,2013-10-06 10:19:00,
2013-10-06 05:24:00,40.8,37.8,29.69,WNW,301,0.0,1.0,89,0.00,,,0.00,VWS V14.01,2013-10-06 10:24:00,
2013-10-06 05:30:00,40.8,37.8,29.69,WNW,301,0.0,1.0,89,0.00,,,0.00,VWS V14.01,2013-10-06 10:30:00,
2013-10-06 05:35:00,40.7,37.7,29.69,WNW,301,0.0,0.0,89,0.00,,,0.00,VWS V14.01,2013-10-06 10:35:00,
2013-10-06 05:40:00,40.5,37.8,29.69,WNW,301,0.0,0.0,90,0.00,,,0.00,VWS V14.01,2013-10-06 10:40:00,
2013-10-06 05:45:00,40.4,37.7,29.69,WNW,302,0.0,0.0,90,0.00,,,0.00,VWS V14.01,2013-10-06 10:45:00,
2013-10-06 05:50:00,40.3,37.6,29.69,WNW,301,0.0,0.0,90,0.00,,,0.00,VWS V14.01,2013-10-06 10:50:00,
2013-10-06 05:55:00,40.1,37.4,29.69,WNW,301,0.0,0.0,90,0.00,,,0.00,VWS V14.01,2013-10-06 10:55:00,
2013-10-06 06:00:00,40.0,37.6,29.70,WNW,301,0.0,0.0,91,0.00,,,0.00,VWS V14.01,2013-10-06 11:00:00,
2013-10-06 06:05:00,39.8,37.1,29.70,WNW,302,0.0,0.0,90,0.00,,,0.00,VWS V14.01,2013-10-06 11:05:00,
2013-10-06 06:10:00,39.8,37.4,29.70,WNW,301,0.0,0.0,91,0.00,,,0.00,VWS V14.01,2013-10-06 11:10:00,
2013-10-06 06:15:00,39.6,36.9,29.70,WNW,301,0.0,1.0,90,0.00,,,0.00,VWS V14.01,2013-10-06 11:15:00,
2013-10-06 06:20:00,39.6,36.9,29.70,WNW,302,0.0,2.0,90,0.00,,,0.00,VWS V14.01,2013-10-06 11:20:00,
2013-10-06 06:25:00,39.7,37.0,29.70,WNW,301,0.0,2.0,90,0.00,,,0.00,VWS V14.01,2013-10-06 11:25:00,
2013-10-06 06:30:00,39.7,37.0,29.70,WNW,302,0.0,2.0,90,0.00,,,0.00,VWS V14.01,2013-10-06 11:30:00,
2013-10-06 06:35:00,39.6,36.9,29.70,WNW,301,0.0,0.0,90,0.00,,,0.00,VWS V14.01,2013-10-06 11:35:00,
2013-10-06 06:40:00,39.5,36.8,29.70,WNW,301,0.0,0.0,90,0.00,,,0.00,VWS V14.01,2013-10-06 11:40:00,
2013-10-06 06:45:00,39.4,36.7,29.70,WNW,302,0.0,0.0,90,0.00,,,0.00,VWS V14.01,2013-10-06 11:45:00,
2013-10-06 06:50:00,39.3,36.6,29.70,WNW,301,0.0,1.0,90,0.00,,,0.00,VWS V14.01,2013-10-06 11:50:00,
2013-10-06 06:55:00,39.2,36.5,29.70,WNW,282,0.0,3.0,90,0.00,,,0.00,VWS V14.01,2013-10-06 11:55:00,
2013-10-06 07:00:00,39.2,36.5,29.70,WNW,283,0.0,3.0,90,0.00,,,0.00,VWS V14.01,2013-10-06 12:00:00,
2013-10-06 07:05:00,39.3,36.3,29.70,SW,236,0.0,1.0,89,0.00,,,0.00,VWS V14.01,2013-10-06 12:05:00,
2013-10-06 07:11:00,39.3,36.3,29.70,WSW,245,0.0,2.0,89,0.00,,,0.00,VWS V14.01,2013-10-06 12:11:00,
2013-10-06 07:16:00,39.4,36.4,29.70,WSW,244,0.0,2.0,89,0.00,,,0.00,VWS V14.01,2013-10-06 12:16:00,
2013-10-06 07:21:00,39.6,36.6,29.70,WSW,245,0.0,2.0,89,0.00,,,0.00,VWS V14.01,2013-10-06 12:21:00,
2013-10-06 07:26:00,39.8,36.8,29.70,WSW,245,0.0,2.0,89,0.00,,,0.00,VWS V14.01,2013-10-06 12:26:00,
2013-10-06 07:31:00,40.1,36.8,29.70,WSW,245,0.0,0.0,88,0.00,,,0.00,VWS V14.01,2013-10-06 12:31:00,
2013-10-06 07:36:00,40.4,37.4,29.70,WSW,245,0.0,0.0,89,0.00,,,0.00,VWS V14.01,2013-10-06 12:36:00,
2013-10-06 07:41:00,40.7,37.7,29.69,WSW,245,0.0,0.0,89,0.00,,,0.00,VWS V14.01,2013-10-06 12:41:00,
2013-10-06 07:46:00,40.9,37.6,29.69,WSW,245,0.0,1.0,88,0.00,,,0.00,VWS V14.01,2013-10-06 12:46:00,
2013-10-06 07:51:00,41.0,38.0,29.69,WSW,245,0.0,1.0,89,0.00,,,0.00,VWS V14.01,2013-10-06 12:51:00,
2013-10-06 07:56:00,41.2,38.2,29.69,WSW,244,0.0,1.0,89,0.00,,,0.00,VWS V14.01,2013-10-06 12:56:00,
2013-10-06 08:01:00,41.3,38.3,29.69,WSW,245,0.0,0.0,89,0.00,,,0.00,VWS V14.01,2013-10-06 13:01:00,
2013-10-06 08:06:00,41.5,38.5,29.69,WSW,245,0.0,1.0,89,0.00,,,0.00,VWS V14.01,2013-10-06 13:06:00,
2013-10-06 08:11:00,41.6,38.6,29.70,WSW,245,0.0,1.0,89,0.00,,,0.00,VWS V14.01,2013-10-06 13:11:00,
2013-10-06 08:16:00,41.7,38.7,29.69,WSW,244,0.0,1.0,89,0.00,,,0.00,VWS V14.01,2013-10-06 13:16:00,
2013-10-06 08:21:00,41.8,38.8,29.69,WSW,245,0.0,1.0,89,0.00,,,0.00,VWS V14.01,2013-10-06 13:21:00,
2013-10-06 08:26:00,42.0,39.0,29.69,WSW,245,0.0,1.0,89,0.00,,,0.00,VWS V14.01,2013-10-06 13:26:00,
2013-10-06 08:31:00,42.1,39.1,29.69,WSW,245,0.0,0.0,89,0.00,,,0.00,VWS V14.01,2013-10-06 13:31:00,
2013-10-06 08:36:00,42.4,39.4,29.69,WSW,245,0.0,0.0,89,0.00,,,0.00,VWS V14.01,2013-10-06 13:36:00,
2013-10-06 08:41:00,42.8,39.8,29.70,WSW,245,0.0,0.0,89,0.00,,,0.00,VWS V14.01,2013-10-06 13:41:00,
2013-10-06 08:46:00,43.1,40.1,29.70,WSW,245,0.0,1.0,89,0.00,,,0.00,VWS V14.01,2013-10-06 13:46:00,
2013-10-06 08:52:00,43.5,40.5,29.70,WSW,245,0.0,1.0,89,0.00,,,0.00,VWS V14.01,2013-10-06 13:52:00,
2013-10-06 08:57:00,43.9,40.9,29.70,West,268,0.0,4.0,89,0.00,,,0.00,VWS V14.01,2013-10-06 13:57:00,
2013-10-06 09:02:00,44.2,41.2,29.70,West,264,1.0,3.0,89,0.00,,,0.00,VWS V14.01,2013-10-06 14:02:00,
2013-10-06 09:07:00,44.4,41.4,29.70,WSW,253,1.0,3.0,89,0.00,,,0.00,VWS V14.01,2013-10-06 14:07:00,
2013-10-06 09:12:00,44.5,41.5,29.70,WSW,253,0.0,3.0,89,0.00,,,0.00,VWS V14.01,2013-10-06 14:12:00,
2013-10-06 09:17:00,44.7,41.7,29.70,WSW,253,0.0,3.0,89,0.00,,,0.00,VWS V14.01,2013-10-06 14:17:00,
2013-10-06 09:22:00,44.9,41.9,29.70,WSW,253,0.0,3.0,89,0.00,,,0.00,VWS V14.01,2013-10-06 14:22:00,
2013-10-06 09:27:00,45.0,42.0,29.70,WSW,253,0.0,3.0,89,0.00,,,0.00,VWS V14.01,2013-10-06 14:27:00,
2013-10-06 09:32:00,45.2,42.2,29.70,WSW,253,0.0,1.0,89,0.00,,,0.00,VWS V14.01,2013-10-06 14:32:00,
2013-10-06 09:37:00,45.3,42.3,29.70,WSW,253,1.0,2.0,89,0.00,,,0.00,VWS V14.01,2013-10-06 14:37:00,
2013-10-06 09:42:00,45.4,42.3,29.71,West,266,0.0,4.0,89,0.00,,,0.00,VWS V14.01,2013-10-06 14:42:00,
2013-10-06 09:47:00,45.4,42.3,29.71,West,263,0.0,4.0,89,0.00,,,0.00,VWS V14.01,2013-10-06 14:47:00,
2013-10-06 09:53:00,45.6,42.5,29.71,WSW,257,0.0,4.0,89,0.00,,,0.00,VWS V14.01,2013-10-06 14:53:00,
2013-10-06 09:58:00,45.6,42.5,29.71,WSW,257,0.0,4.0,89,0.00,,,0.00,VWS V14.01,2013-10-06 14:58:00,
2013-10-06 10:03:00,45.8,42.8,29.71,WSW,256,0.0,1.0,89,0.00,,,0.00,VWS V14.01,2013-10-06 15:03:00,
2013-10-06 10:08:00,46.1,43.0,29.71,WSW,256,0.0,1.0,89,0.00,,,0.00,VWS V14.01,2013-10-06 15:08:00,
2013-10-06 10:13:00,46.5,43.4,29.71,WSW,257,0.0,2.0,89,0.00,,,0.00,VWS V14.01,2013-10-06 15:13:00,
2013-10-06 10:18:00,46.8,43.7,29.71,WSW,257,0.0,2.0,89,0.01,,,0.01,VWS V14.01,2013-10-06 15:18:00,
2013-10-06 10:23:00,47.0,43.9,29.71,SW,235,0.0,2.0,89,0.01,,,0.01,VWS V14.01,2013-10-06 15:23:00,
2013-10-06 10:28:00,47.2,44.1,29.71,WSW,249,0.0,2.0,89,0.01,,,0.01,VWS V14.01,2013-10-06 15:28:00,
2013-10-06 10:33:00,47.4,44.3,29.71,WSW,249,0.0,0.0,89,0.01,,,0.01,VWS V14.01,2013-10-06 15:33:00,
2013-10-06 10:38:00,47.6,44.5,29.71,WSW,250,0.0,2.0,89,0.02,,,0.02,VWS V14.01,2013-10-06 15:38:00,
2013-10-06 10:43:00,47.7,44.6,29.71,WSW,249,0.0,2.0,89,0.02,,,0.02,VWS V14.01,2013-10-06 15:43:00,
2013-10-06 10:48:00,47.9,44.8,29.71,West,268,0.0,4.0,89,0.02,,,0.02,VWS V14.01,2013-10-06 15:48:00,
2013-10-06 10:53:00,48.1,45.0,29.71,West,268,0.0,4.0,89,0.02,,,0.02,VWS V14.01,2013-10-06 15:53:00,
2013-10-06 10:59:00,48.3,45.2,29.72,West,272,1.0,4.0,89,0.02,,,0.02,VWS V14.01,2013-10-06 15:59:00,
2013-10-06 11:04:00,48.4,45.3,29.71,West,271,0.0,1.0,89,0.03,,,0.03,VWS V14.01,2013-10-06 16:04:00,
2013-10-06 11:09:00,48.6,45.5,29.71,West,271,0.0,2.0,89,0.03,,,0.03,VWS V14.01,2013-10-06 16:09:00,
2013-10-06 11:14:00,48.7,45.6,29.71,West,271,0.0,2.0,89,0.03,,,0.03,VWS V14.01,2013-10-06 16:14:00,
2013-10-06 11:19:00,49.0,45.9,29.72,West,270,0.0,3.0,89,0.03,,,0.03,VWS V14.01,2013-10-06 16:19:00,
2013-10-06 11:24:00,49.1,46.0,29.71,West,270,0.0,3.0,89,0.03,,,0.03,VWS V14.01,2013-10-06 16:24:00,
2013-10-06 11:29:00,49.2,46.1,29.71,West,270,0.0,3.0,89,0.04,,,0.04,VWS V14.01,2013-10-06 16:29:00,
2013-10-06 11:34:00,49.5,46.4,29.72,NW,315,0.0,1.0,89,0.03,,,0.04,VWS V14.01,2013-10-06 16:34:00,
2013-10-06 11:39:00,49.9,46.8,29.72,NW,324,0.0,2.0,89,0.03,,,0.04,VWS V14.01,2013-10-06 16:39:00,
2013-10-06 11:44:00,50.3,47.2,29.71,North,4,0.0,3.0,89,0.03,,,0.04,VWS V14.01,2013-10-06 16:44:00,
2013-10-06 11:49:00,50.5,47.4,29.71,North,4,1.0,3.0,89,0.03,,,0.04,VWS V14.01,2013-10-06 16:49:00,
2013-10-06 11:54:00,50.5,47.4,29.71,ENE,58,1.0,3.0,89,0.03,,,0.04,VWS V14.01,2013-10-06 16:54:00,
2013-10-06 11:59:00,50.4,47.3,29.71,East,88,1.0,3.0,89,0.03,,,0.04,VWS V14.01,2013-10-06 16:59:00,
2013-10-06 12:05:00,50.3,47.2,29.71,NNE,17,0.0,2.0,89,0.01,,,0.04,VWS V14.01,2013-10-06 17:05:00,
2013-10-06 12:10:00,50.3,47.2,29.71,North,4,0.0,2.0,89,0.01,,,0.04,VWS V14.01,2013-10-06 17:10:00,
2013-10-06 12:15:00,50.4,47.3,29.71,ENE,67,0.0,2.0,89,0.01,,,0.04,VWS V14.01,2013-10-06 17:15:00,
2013-10-06 12:20:00,50.7,47.6,29.71,ENE,68,0.0,2.0,89,0.01,,,0.04,VWS V14.01,2013-10-06 17:20:00,
2013-10-06 12:25:00,51.1,48.0,29.71,SE,129,0.0,3.0,89,0.01,,,0.04,VWS V14.01,2013-10-06 17:25:00,
2013-10-06 12:30:00,51.5,48.1,29.71,ESE,122,0.0,3.0,88,0.01,,,0.04,VWS V14.01,2013-10-06 17:30:00,
2013-10-06 12:35:00,51.8,48.4,29.71,NNW,337,0.0,4.0,88,0.00,,,0.04,VWS V14.01,2013-10-06 17:35:00,
2013-10-06 12:40:00,51.9,48.5,29.71,NNW,337,3.0,4.0,88,0.00,,,0.04,VWS V14.01,2013-10-06 17:40:00,
2013-10-06 12:45:00,52.0,48.6,29.71,NE,35,1.0,4.0,88,0.00,,,0.04,VWS V14.01,2013-10-06 17:45:00,
2013-10-06 12:50:00,51.9,48.5,29.71,North,4,2.0,4.0,88,0.00,,,0.04,VWS V14.01,2013-10-06 17:50:00,
2013-10-06 12:55:00,51.9,49.4,29.71,NNW,339,1.0,4.0,91,0.00,,,0.04,VWS V14.01,2013-10-06 17:55:00,
2013-10-06 13:00:00,51.9,49.7,29.71,East,91,1.0,4.0,92,0.00,,,0.04,VWS V14.01,2013-10-06 18:00:00,
2013-10-06 13:05:00,51.9,49.7,29.71,North,8,1.0,4.0,92,0.00,,,0.04,VWS V14.01,2013-10-06 18:05:00,
2013-10-06 13:10:00,51.9,49.7,29.71,NE,35,0.0,5.0,92,0.00,,,0.04,VWS V14.01,2013-10-06 18:10:00,
2013-10-06 13:15:00,51.7,49.5,29.71,NW,307,1.0,5.0,92,0.00,,,0.04,VWS V14.01,2013-10-06 18:15:00,
2013-10-06 13:21:00,51.7,49.5,29.71,ESE,120,2.0,5.0,92,0.00,,,0.04,VWS V14.01,2013-10-06 18:21:00,
2013-10-06 13:26:00,51.7,49.5,29.71,WNW,301,0.0,5.0,92,0.00,,,0.04,VWS V14.01,2013-10-06 18:26:00,
2013-10-06 13:31:00,51.8,49.5,29.71,East,85,0.0,1.0,92,0.00,,,0.04,VWS V14.01,2013-10-06 18:31:00,
2013-10-06 13:36:00,52.0,49.8,29.71,NNE,27,1.0,3.0,92,0.00,,,0.04,VWS V14.01,2013-10-06 18:36:00,
2013-10-06 13:41:00,52.3,50.0,29.71,NW,326,0.0,4.0,92,0.00,,,0.04,VWS V14.01,2013-10-06 18:41:00,
2013-10-06 13:46:00,52.6,50.3,29.70,NE,44,0.0,4.0,92,0.00,,,0.04,VWS V14.01,2013-10-06 18:46:00,
2013-10-06 13:51:00,52.8,50.5,29.70,WNW,300,0.0,4.0,92,0.00,,,0.04,VWS V14.01,2013-10-06 18:51:00,
2013-10-06 13:56:00,52.9,50.6,29.70,WNW,300,1.0,4.0,92,0.00,,,0.04,VWS V14.01,2013-10-06 18:56:00,
2013-10-06 14:01:00,52.8,50.2,29.71,WNW,283,5.0,5.0,91,0.00,,,0.04,VWS V14.01,2013-10-06 19:01:00,
2013-10-06 14:07:00,52.5,50.0,29.71,WNW,288,1.0,5.0,91,0.00,,,0.04,VWS V14.01,2013-10-06 19:07:00,
2013-10-06 14:12:00,52.2,49.4,29.71,NNW,344,0.0,5.0,90,0.00,,,0.04,VWS V14.01,2013-10-06 19:12:00,
2013-10-06 14:17:00,52.0,49.5,29.71,North,8,0.0,5.0,91,0.00,,,0.04,VWS V14.01,2013-10-06 19:17:00,
2013-10-06 14:22:00,51.8,49.5,29.70,WNW,303,0.0,5.0,92,0.00,,,0.04,VWS V14.01,2013-10-06 19:22:00,
2013-10-06 14:27:00,51.7,49.5,29.71,NNE,22,0.0,5.0,92,0.00,,,0.04,VWS V14.01,2013-10-06 19:27:00,
2013-10-06 14:32:00,51.6,49.4,29.71,WNW,293,0.0,1.0,92,0.00,,,0.04,VWS V14.01,2013-10-06 19:32:00,
2013-10-06 14:37:00,51.6,49.1,29.71,WNW,282,3.0,4.0,91,0.00,,,0.04,VWS V14.01,2013-10-06 19:37:00,
2013-10-06 14:42:00,51.5,49.0,29.71,ENE,60,2.0,5.0,91,0.00,,,0.04,VWS V14.01,2013-10-06 19:42:00,
2013-10-06 14:47:00,51.4,48.9,29.71,North,354,0.0,5.0,91,0.00,,,0.04,VWS V14.01,2013-10-06 19:47:00,
2013-10-06 14:52:00,51.2,48.7,29.71,West,280,1.0,5.0,91,0.00,,,0.04,VWS V14.01,2013-10-06 19:52:00,
2013-10-06 14:57:00,51.1,48.9,29.72,WNW,283,1.0,5.0,92,0.00,,,0.04,VWS V14.01,2013-10-06 19:57:00,
2013-10-06 15:02:00,51.0,48.8,29.72,North,9,1.0,1.0,92,0.00,,,0.04,VWS V14.01,2013-10-06 20:02:00,
2013-10-06 15:07:00,50.9,48.7,29.72,NW,312,2.0,4.0,92,0.00,,,0.04,VWS V14.01,2013-10-06 20:07:00,
2013-10-06 15:13:00,50.8,48.6,29.72,NNW,328,2.0,5.0,92,0.00,,,0.04,VWS V14.01,2013-10-06 20:13:00,
2013-10-06 15:18:00,50.7,48.5,29.72,NNE,14,4.0,5.0,92,0.00,,,0.04,VWS V14.01,2013-10-06 20:18:00,
2013-10-06 15:23:00,50.6,48.4,29.72,WNW,297,2.0,5.0,92,0.00,,,0.04,VWS V14.01,2013-10-06 20:23:00,
2013-10-06 15:28:00,50.7,48.5,29.72,NW,304,1.0,5.0,92,0.00,,,0.04,VWS V14.01,2013-10-06 20:28:00,
2013-10-06 15:33:00,50.7,48.5,29.72,NE,35,0.0,1.0,92,0.00,,,0.04,VWS V14.01,2013-10-06 20:33:00,
2013-10-06 15:38:00,50.8,48.6,29.72,North,4,1.0,3.0,92,0.00,,,0.04,VWS V14.01,2013-10-06 20:38:00,
2013-10-06 15:43:00,50.8,48.6,29.73,NW,323,2.0,3.0,92,0.00,,,0.04,VWS V14.01,2013-10-06 20:43:00,
2013-10-06 15:48:00,50.7,48.5,29.73,NW,307,3.0,6.0,92,0.00,,,0.04,VWS V14.01,2013-10-06 20:48:00,
2013-10-06 15:53:00,50.7,48.5,29.73,NW,326,1.0,6.0,92,0.00,,,0.04,VWS V14.01,2013-10-06 20:53:00,
2013-10-06 15:58:00,50.8,48.6,29.73,North,4,1.0,6.0,92,0.00,,,0.04,VWS V14.01,2013-10-06 20:58:00,
2013-10-06 16:03:00,50.9,48.7,29.73,ENE,69,1.0,2.0,92,0.00,,,0.04,VWS V14.01,2013-10-06 21:03:00,
2013-10-06 16:08:00,50.9,48.7,29.73,WSW,246,0.0,5.0,92,0.00,,,0.04,VWS V14.01,2013-10-06 21:08:00,
2013-10-06 16:13:00,50.8,48.6,29.73,NE,41,2.0,5.0,92,0.00,,,0.04,VWS V14.01,2013-10-06 21:13:00,
2013-10-06 16:19:00,50.6,48.4,29.73,WNW,291,1.0,5.0,92,0.00,,,0.04,VWS V14.01,2013-10-06 21:19:00,
2013-10-06 16:24:00,50.6,48.4,29.74,NW,309,1.0,5.0,92,0.00,,,0.04,VWS V14.01,2013-10-06 21:24:00,
2013-10-06 16:29:00,50.5,48.3,29.74,North,4,1.0,5.0,92,0.00,,,0.04,VWS V14.01,2013-10-06 21:29:00,
2013-10-06 16:34:00,50.4,48.2,29.74,North,354,1.0,3.0,92,0.00,,,0.04,VWS V14.01,2013-10-06 21:34:00,
2013-10-06 16:39:00,50.4,48.2,29.74,NW,317,2.0,5.0,92,0.00,,,0.04,VWS V14.01,2013-10-06 21:39:00,
2013-10-06 16:44:00,50.2,48.0,29.74,NE,35,1.0,8.0,92,0.00,,,0.04,VWS V14.01,2013-10-06 21:44:00,
2013-10-06 16:49:00,50.1,47.9,29.75,NW,326,1.0,8.0,92,0.00,,,0.04,VWS V14.01,2013-10-06 21:49:00,
2013-10-06 16:54:00,50.1,47.9,29.75,WNW,303,1.0,8.0,92,0.00,,,0.04,VWS V14.01,2013-10-06 21:54:00,
2013-10-06 16:59:00,50.0,47.8,29.75,NNE,33,0.0,8.0,92,0.00,,,0.04,VWS V14.01,2013-10-06 21:59:00,
2013-10-06 17:04:00,50.0,47.8,29.75,WNW,297,2.0,8.0,92,0.00,,,0.04,VWS V14.01,2013-10-06 22:04:00,
2013-10-06 17:09:00,49.8,47.6,29.76,North,359,0.0,8.0,92,0.01,,,0.05,VWS V14.01,2013-10-06 22:09:00,
2013-10-06 17:14:00,49.6,47.4,29.76,South,183,1.0,8.0,92,0.01,,,0.05,VWS V14.01,2013-10-06 22:14:00,
2013-10-06 17:19:00,49.4,47.2,29.76,WNW,301,3.0,8.0,92,0.01,,,0.05,VWS V14.01,2013-10-06 22:19:00,
2013-10-06 17:24:00,49.1,46.6,29.76,NNE,28,3.0,8.0,91,0.01,,,0.05,VWS V14.01,2013-10-06 22:24:00,
2013-10-06 17:30:00,49.0,46.8,29.77,East,96,1.0,8.0,92,0.01,,,0.05,VWS V14.01,2013-10-06 22:30:00,
2013-10-06 17:35:00,48.8,46.6,29.77,WSW,240,2.0,7.0,92,0.01,,,0.05,VWS V14.01,2013-10-06 22:35:00,
2013-10-06 17:40:00,48.8,46.6,29.77,West,268,0.0,7.0,92,0.01,,,0.05,VWS V14.01,2013-10-06 22:40:00,
2013-10-06 17:45:00,48.7,46.5,29.78,WNW,302,2.0,7.0,92,0.01,,,0.05,VWS V14.01,2013-10-06 22:45:00,
2013-10-06 17:50:00,48.5,46.3,29.78,WNW,301,1.0,7.0,92,0.01,,,0.05,VWS V14.01,2013-10-06 22:50:00,
2013-10-06 17:55:00,48.5,46.3,29.78,NW,320,0.0,7.0,92,0.01,,,0.05,VWS V14.01,2013-10-06 22:55:00,
2013-10-06 18:00:00,48.4,46.2,29.78,North,354,0.0,7.0,92,0.01,,,0.05,VWS V14.01,2013-10-06 23:00:00,
2013-10-06 18:05:00,48.3,46.1,29.78,NNW,340,1.0,9.0,92,0.01,,,0.05,VWS V14.01,2013-10-06 23:05:00,
2013-10-06 18:10:00,48.2,46.0,29.79,North,4,0.0,9.0,92,0.01,,,0.05,VWS V14.01,2013-10-06 23:10:00,
2013-10-06 18:15:00,48.1,45.9,29.79,NNE,29,1.0,9.0,92,0.01,,,0.05,VWS V14.01,2013-10-06 23:15:00,
2013-10-06 18:20:00,48.1,45.9,29.79,NNW,341,1.0,9.0,92,0.01,,,0.05,VWS V14.01,2013-10-06 23:20:00,
2013-10-06 18:25:00,48.0,45.8,29.79,SW,232,3.0,9.0,92,0.01,,,0.05,VWS V14.01,2013-10-06 23:25:00,
2013-10-06 18:30:00,48.0,45.8,29.79,NNE,22,1.0,9.0,92,0.01,,,0.05,VWS V14.01,2013-10-06 23:30:00,
2013-10-06 18:36:00,47.9,45.7,29.79,NE,50,2.0,5.0,92,0.00,,,0.05,VWS V14.01,2013-10-06 23:36:00,
2013-10-06 18:41:00,47.9,45.7,29.80,West,270,1.0,6.0,92,0.00,,,0.05,VWS V14.01,2013-10-06 23:41:00,
2013-10-06 18:46:00,47.9,45.7,29.80,NE,54,0.0,6.0,92,0.00,,,0.05,VWS V14.01,2013-10-06 23:46:00,
2013-10-06 18:51:00,47.8,45.6,29.80,NW,326,1.0,6.0,92,0.01,,,0.06,VWS V14.01,2013-10-06 23:51:00,
2013-10-06 18:56:00,47.7,45.5,29.80,North,354,3.0,6.0,92,0.01,,,0.06,VWS V14.01,2013-10-06 23:56:00,
2013-10-06 19:01:00,47.7,45.5,29.80,NNE,18,1.0,1.0,92,0.01,,,0.06,VWS V14.01,2013-10-07 00:01:00,
2013-10-06 19:06:00,47.7,45.5,29.81,NNE,24,3.0,7.0,92,0.01,,,0.06,VWS V14.01,2013-10-07 00:06:00,
2013-10-06 19:11:00,47.7,45.5,29.81,WNW,284,2.0,7.0,92,0.01,,,0.06,VWS V14.01,2013-10-07 00:11:00,
2013-10-06 19:16:00,47.7,45.5,29.81,ENE,70,0.0,7.0,92,0.01,,,0.06,VWS V14.01,2013-10-07 00:16:00,
2013-10-06 19:21:00,47.7,45.2,29.81,ENE,58,0.0,7.0,91,0.01,,,0.06,VWS V14.01,2013-10-07 00:21:00,
2013-10-06 19:26:00,47.7,45.2,29.82,NNE,25,3.0,7.0,91,0.01,,,0.06,VWS V14.01,2013-10-07 00:26:00,
2013-10-06 19:31:00,47.7,45.2,29.82,NW,313,0.0,0.0,91,0.01,,,0.06,VWS V14.01,2013-10-07 00:31:00,
2013-10-06 19:36:00,47.8,45.3,29.82,NE,51,2.0,3.0,91,0.01,,,0.06,VWS V14.01,2013-10-07 00:36:00,
2013-10-06 19:42:00,47.8,45.3,29.82,NE,56,0.0,3.0,91,0.01,,,0.06,VWS V14.01,2013-10-07 00:42:00,
2013-10-06 19:47:00,47.7,45.5,29.82,WSW,256,1.0,3.0,92,0.01,,,0.06,VWS V14.01,2013-10-07 00:47:00,
2013-10-06 19:52:00,47.7,45.5,29.82,South,183,0.0,3.0,92,0.01,,,0.06,VWS V14.01,2013-10-07 00:52:00,
2013-10-06 19:57:00,47.6,45.4,29.82,SW,229,0.0,3.0,92,0.01,,,0.06,VWS V14.01,2013-10-07 00:57:00,
2013-10-06 20:02:00,47.4,45.2,29.82,NW,326,0.0,0.0,92,0.00,,,0.06,VWS V14.01,2013-10-07 01:02:00,
2013-10-06 20:07:00,47.3,45.1,29.83,West,262,0.0,4.0,92,0.00,,,0.06,VWS V14.01,2013-10-07 01:07:00,
2013-10-06 20:12:00,47.2,45.0,29.83,West,262,0.0,4.0,92,0.00,,,0.06,VWS V14.01,2013-10-07 01:12:00,
2013-10-06 20:17:00,47.0,44.8,29.83,West,261,0.0,4.0,92,0.00,,,0.06,VWS V14.01,2013-10-07 01:17:00,
2013-10-06 20:22:00,46.9,44.7,29.83,West,262,0.0,4.0,92,0.00,,,0.06,VWS V14.01,2013-10-07 01:22:00,
2013-10-06 20:27:00,46.8,44.6,29.83,WNW,301,0.0,4.0,92,0.00,,,0.06,VWS V14.01,2013-10-07 01:27:00,
2013-10-06 20:32:00,46.7,44.5,29.83,WNW,301,0.0,1.0,92,0.00,,,0.06,VWS V14.01,2013-10-07 01:32:00,
2013-10-06 20:38:00,46.6,44.4,29.83,WNW,301,0.0,1.0,92,0.00,,,0.06,VWS V14.01,2013-10-07 01:38:00,
2013-10-06 20:43:00,46.5,44.3,29.83,WNW,301,0.0,1.0,92,0.00,,,0.06,VWS V14.01,2013-10-07 01:43:00,
2013-10-06 20:48:00,46.3,44.1,29.83,WNW,293,0.0,2.0,92,0.00,,,0.06,VWS V14.01,2013-10-07 01:48:00,
2013-10-06 20:53:00,46.2,44.0,29.83,WNW,293,0.0,2.0,92,0.00,,,0.06,VWS V14.01,2013-10-07 01:53:00,
2013-10-06 20:58:00,46.0,43.8,29.83,WNW,293,0.0,2.0,92,0.00,,,0.06,VWS V14.01,2013-10-07 01:58:00,
2013-10-06 21:03:00,45.9,43.7,29.83,WNW,293,0.0,1.0,92,0.00,,,0.06,VWS V14.01,2013-10-07 02:03:00,
2013-10-06 21:08:00,45.8,43.6,29.83,WNW,293,0.0,1.0,92,0.00,,,0.06,VWS V14.01,2013-10-07 02:08:00,
2013-10-06 21:13:00,45.6,43.4,29.83,WNW,293,0.0,1.0,92,0.00,,,0.06,VWS V14.01,2013-10-07 02:13:00,
2013-10-06 21:18:00,45.5,43.3,29.83,WNW,290,1.0,2.0,92,0.00,,,0.06,VWS V14.01,2013-10-07 02:18:00,
2013-10-06 21:23:00,45.4,42.9,29.83,West,280,0.0,2.0,91,0.00,,,0.06,VWS V14.01,2013-10-07 02:23:00,
2013-10-06 21:28:00,45.3,42.8,29.84,West,280,0.0,2.0,91,0.00,,,0.06,VWS V14.01,2013-10-07 02:28:00,
2013-10-06 21:34:00,45.2,43.0,29.84,West,280,0.0,1.0,92,0.00,,,0.06,VWS V14.01,2013-10-07 02:34:00,
2013-10-06 21:39:00,45.1,42.9,29.84,West,280,0.0,1.0,92,0.00,,,0.06,VWS V14.01,2013-10-07 02:39:00,
2013-10-06 21:44:00,45.0,42.5,29.83,West,280,0.0,1.0,91,0.00,,,0.06,VWS V14.01,2013-10-07 02:44:00,
2013-10-06 21:49:00,44.9,42.4,29.84,West,281,0.0,1.0,91,0.00,,,0.06,VWS V14.01,2013-10-07 02:49:00,
2013-10-06 21:54:00,44.8,42.3,29.84,West,281,0.0,3.0,91,0.00,,,0.06,VWS V14.01,2013-10-07 02:54:00,
2013-10-06 21:59:00,44.8,42.3,29.84,West,266,0.0,3.0,91,0.00,,,0.06,VWS V14.01,2013-10-07 02:59:00,
2013-10-06 22:04:00,44.8,42.3,29.84,West,266,0.0,2.0,91,0.00,,,0.06,VWS V14.01,2013-10-07 03:04:00,
2013-10-06 22:09:00,44.7,42.0,29.85,West,265,0.0,2.0,90,0.00,,,0.06,VWS V14.01,2013-10-07 03:09:00,
2013-10-06 22:14:00,44.7,42.2,29.85,West,265,0.0,2.0,91,0.00,,,0.06,VWS V14.01,2013-10-07 03:14:00,
2013-10-06 22:19:00,44.6,42.1,29.85,West,266,0.0,2.0,91,0.00,,,0.06,VWS V14.01,2013-10-07 03:19:00,
2013-10-06 22:24:00,44.6,42.1,29.85,West,265,0.0,2.0,91,0.00,,,0.06,VWS V14.01,2013-10-07 03:24:00,
2013-10-06 22:29:00,44.5,42.0,29.85,West,266,1.0,2.0,91,0.00,,,0.06,VWS V14.01,2013-10-07 03:29:00,
2013-10-06 22:34:00,44.5,41.8,29.85,West,265,0.0,1.0,90,0.00,,,0.06,VWS V14.01,2013-10-07 03:34:00,
2013-10-06 22:40:00,44.5,41.8,29.85,West,266,0.0,2.0,90,0.00,,,0.06,VWS V14.01,2013-10-07 03:40:00,
2013-10-06 22:45:00,44.4,41.7,29.85,West,265,0.0,2.0,90,0.00,,,0.06,VWS V14.01,2013-10-07 03:45:00,
2013-10-06 22:50:00,44.3,41.8,29.85,West,265,0.0,2.0,91,0.00,,,0.06,VWS V14.01,2013-10-07 03:50:00,
2013-10-06 22:55:00,44.3,41.8,29.85,West,265,1.0,2.0,91,0.00,,,0.06,VWS V14.01,2013-10-07 03:55:00,
2013-10-06 23:00:00,44.2,41.7,29.85,West,265,0.0,2.0,91,0.00,,,0.06,VWS V14.01,2013-10-07 04:00:00,
2013-10-06 23:01:00,44.2,41.7,29.85,West,265,0.0,2.0,91,0.00,,,0.06,VWS V14.01,2013-10-07 04:01:00,
2013-10-06 23:02:00,44.2,41.7,29.85,West,265,0.0,0.0,91,0.00,,,0.06,VWS V14.01,2013-10-07 04:02:00,
2013-10-06 23:07:00,44.1,41.7,29.85,West,266,0.0,0.0,91,0.00,,,0.06,VWS V14.01,2013-10-07 04:07:00,
2013-10-06 23:12:00,44.0,41.5,29.85,West,266,0.0,3.0,91,0.00,,,0.06,VWS V14.01,2013-10-07 04:12:00,
2013-10-06 23:18:00,43.9,41.5,29.85,West,266,0.0,3.0,91,0.00,,,0.06,VWS V14.01,2013-10-07 04:18:00,
2013-10-06 23:23:00,43.8,41.3,29.85,West,266,0.0,3.0,91,0.00,,,0.06,VWS V14.01,2013-10-07 04:23:00,
2013-10-06 23:28:00,43.8,41.3,29.85,West,274,0.0,4.0,91,0.00,,,0.06,VWS V14.01,2013-10-07 04:28:00,
2013-10-06 23:33:00,43.8,41.1,29.85,West,262,1.0,2.0,90,0.00,,,0.06,VWS V14.01,2013-10-07 04:33:00,
2013-10-06 23:38:00,43.8,41.1,29.85,West,263,0.0,2.0,90,0.00,,,0.06,VWS V14.01,2013-10-07 04:38:00,
2013-10-06 23:43:00,44.0,41.3,29.85,West,259,0.0,2.0,90,0.00,,,0.06,VWS V14.01,2013-10-07 04:43:00,
2013-10-06 23:48:00,44.0,41.0,29.85,WNW,282,0.0,3.0,89,0.00,,,0.06,VWS V14.01,2013-10-07 04:48:00,
2013-10-06 23:53:00,44.1,41.1,29.85,WNW,301,0.0,3.0,89,0.00,,,0.06,VWS V14.01,2013-10-07 04:53:00,
2013-10-06 23:58:00,44.1,41.1,29.85,WNW,295,0.0,3.0,89,0.00,,,0.06,VWS V14.01,2013-10-07 04:58:00,